Regional Weather Roundup
Issued by NWS Charleston, WV

Home | Current Version | Previous Version | Text Only | Print | Product List | Glossary On
Versions: 1 2 3 4 5 6 7 8 9 10 11 12 13 14 15 16 17 18 19 20 21 22 23 24 25 26 27 28 29 30 31 32 33 34 35 36 37 38 39 40 41 42 43 44 45 46 47
000
ASUS41 KRLX 040410
RWRRLX
West Virginia Regional Weather Roundup
National Weather Service Charleston WV
1200 AM EDT FRI SEP 04 2015

Note: "fair" indicates few or no clouds below 12,000 feet with no
significant weather and/or obstructions to visibility.

WVZ003-040500-
Northern Panhandle of West Virginia

CITY           SKY/WX    TMP DP  RH WIND       PRES   REMARKS
WHEELING       PTCLDY    69  66  90 NW3       30.01R FOG
$$

WVZ009-040500-
Northwest West Virginia

CITY           SKY/WX    TMP DP  RH WIND       PRES   REMARKS
PARKERSBURG    CLEAR     67  65  93 CALM      30.02R FOG
$$

WVZ006-040500-
Western West Virginia

CITY           SKY/WX    TMP DP  RH WIND       PRES   REMARKS
HUNTINGTON     CLEAR     69  67  93 CALM      29.99S
$$

WVZ015-040500-
West Central West Virginia

CITY           SKY/WX    TMP DP  RH WIND       PRES   REMARKS
CHARLESTON     CLEAR     72  69  90 CALM      29.99S
$$

WVZ022-031-040500-
North Central West Virginia

CITY           SKY/WX    TMP DP  RH WIND       PRES   REMARKS
CLARKSBURG     PTCLDY    66  64  93 NW3       30.00F FOG
MORGANTOWN     PTCLDY    71  65  81 CALM      30.01F
$$

WVZ025-035-042-045-040500-
Southern West Virginia

CITY           SKY/WX    TMP DP  RH WIND       PRES   REMARKS
BECKLEY        PTCLDY    68  64  87 CALM      30.08F
LOGAN            N/A     72  68  88 CALM      30.04S
BLUEFIELD      CLOUDY    72  63  73 W3        30.10F
LEWISBURG      PTCLDY    67  64  91 CALM      30.07S
$$

WVZ047-040500-
Northern Mountains of West Virginia

CITY           SKY/WX    TMP DP  RH WIND       PRES   REMARKS
ELKINS         PTCLDY    67  64  90 CALM      30.06S
$$

WVZ052-040500-
Eastern Panhandle of West Virginia

CITY           SKY/WX    TMP DP  RH WIND       PRES   REMARKS
MARTINSBURG    PTCLDY    72  66  81 SW3       29.94R
PETERSBURG     PTCLDY    68  67  98 CALM      30.00R FOG
$$


USA.gov is the U.S. government's official web portal to all federal, state and local government web resources and services.